GFSCGP_700_rhum_000.txt.gz
RH
9 13 15 16 18 18 19 22 23 23 36 43 38 39 43 45 55 60 65 37 32 19 21 23 22 20 17 12 11 16 19 22 29 38 47 48 44 46 51 41 39 40 40 53
14 12 13 14 17 19 20 21 21 22 37 39 33 37 42 49 37 57 60 57 26 26 24 24 23 22 22 22 19 17 19 23 28 38 41 28 27 24 26 19 26 18 30 20
14 10 12 14 14 18 21 21 21 25 38 40 34 37 36 40 56 38 45 54 45 20 20 20 25 23 23 23 23 20 22 21 24 36 27 23 25 18 19 15 19 14 14 15
12 10 11 13 16 18 19 19 22 25 30 32 36 26 25 30 47 46 29 30 21 27 16 18 22 23 20 21 25 23 14 13 28 28 22 17 15 11 16 19 17 16 16 15
14 11 13 12 13 15 19 18 20 22 27 29 32 32 25 30 33 41 22 25 26 7 7 12 15 19 22 26 29 14 9 11 21 24 12 15 15 20 28 31 34 37 38 34
15 14 11 12 11 15 18 19 21 22 23 25 26 28 22 22 27 24 34 43 23 24 11 8 9 14 17 24 17 8 14 14 13 11 12 18 23 26 33 32 30 37 41 42
17 14 12 10 12 12 17 21 22 23 21 21 24 26 23 19 20 22 19 30 30 26 22 15 10 8 7 8 8 15 20 19 22 20 16 18 22 26 31 32 32 37 42 43
18 15 14 12 10 14 16 18 19 24 19 17 21 23 21 22 21 19 19 24 36 22 25 28 21 12 9 9 11 18 21 22 25 26 23 24 28 28 29 31 35 38 39 42
16 17 14 12 12 11 16 17 18 17 16 15 14 21 20 19 23 20 22 16 19 24 22 26 30 24 12 13 14 18 19 22 25 27 29 31 31 32 33 36 36 40 41 43
19 18 16 14 13 11 12 17 18 18 23 21 16 16 19 19 17 15 18 12 12 18 23 25 27 32 25 14 17 20 22 22 20 24 27 31 32 32 33 33 31 35 37 39
21 21 15 15 13 10 12 14 18 18 17 17 19 16 15 17 18 17 15 16 13 12 13 22 25 24 34 21 21 29 32 36 34 24 21 26 29 31 33 36 40 37 41 42
24 23 20 12 11 10 10 13 17 18 20 18 16 13 13 15 17 16 15 14 15 13 15 14 24 24 26 36 35 40 39 40 44 45 44 34 24 26 30 35 37 36 37 52
21 22 22 20 11 10 10 11 14 17 17 17 18 16 14 16 16 16 16 18 13 12 13 16 18 21 25 29 36 39 39 40 45 52 53 55 53 49 29 31 33 46 54 56
28 19 20 18 16 11 11 10 11 12 15 17 16 16 15 13 16 15 14 13 12 13 14 16 17 21 19 24 24 28 37 38 44 49 50 52 57 62 62 48 36 38 43 44
46 35 26 21 18 16 14 12 11 10 11 15 15 15 15 16 15 15 14 14 12 11 12 14 18 16 14 15 24 30 34 32 38 42 41 44 52 58 65 73 75 57 44 57
35 40 34 29 24 20 17 16 11 10 10 11 13 14 14 14 16 15 14 14 18 11 12 14 18 15 16 16 15 13 19 25 26 32 38 45 45 44 47 62 70 58 55 51
37 39 45 33 26 24 22 18 15 12 10 11 11 11 12 12 14 14 15 14 11 11 14 16 18 15 16 16 17 16 18 30 32 32 30 31 31 31 32 42 53 63 68 65
50 54 46 37 40 34 20 19 18 14 10 12 14 14 12 13 18 15 20 13 12 13 13 16 18 15 16 16 21 28 22 18 19 20 24 26 25 18 17 17 21 23 23 44
44 50 42 37 33 30 30 27 19 17 13 11 15 18 20 22 14 14 12 10 12 14 13 16 16 15 15 20 21 17 18 18 21 22 22 18 14 27 35 35 35 36 37 40
44 51 46 40 35 35 46 37 27 25 29 16 14 19 20 25 17 14 13 11 12 14 16 14 17 19 18 22 20 17 16 20 22 22 18 16 30 36 39 41 40 41 41 44
52 51 36 38 45 43 51 38 40 53 26 16 20 14 11 19 22 16 12 10 13 15 16 15 17 21 26 26 26 19 20 26 23 16 22 28 32 33 35 39 40 46 56 56
57 51 38 46 54 45 55 53 50 60 42 29 18 14 15 14 12 17 16 18 18 16 20 19 18 22 28 26 24 28 25 19 24 30 32 32 32 36 39 45 44 48 56 65
47 43 40 51 41 53 54 52 50 83 74 42 37 26 34 22 24 22 24 30 21 20 24 27 31 30 28 26 27 23 23 27 31 33 33 37 40 45 45 49 57 56 59 61
63 63 62 58 50 56 51 52 54 92 90 84 84 74 72 44 37 38 39 33 31 32 33 34 32 31 30 30 30 30 32 35 36 38 37 40 44 49 53 60 74 63 64 61
73 74 78 78 60 59 66 66 65 67 66 54 55 54 43 44 43 40 40 41 41 43 47 47 44 40 38 36 36 37 36 35 35 38 32 38 51 63 83 77 73 75 57 50
76 85 78 77 61 56 59 64 70 59 55 54 49 48 49 49 49 48 46 46 47 46 44 43 41 40 39 39 38 36 28 20 24 28 28 44 64 78 72 68 67 65 46 45

GFSCGP_700_rhum_003.txt.gz
RH
14 11 13 16 17 18 17 18 17 18 21 26 29 30 34 41 45 43 43 48 53 58 29 19 17 15 14 15 18 22 23 22 24 23 34 46 48 42 36 40 68 40 40 37
13 11 12 15 16 17 17 17 18 18 20 22 25 29 28 43 44 45 44 46 51 54 59 44 17 20 20 18 15 13 14 16 19 22 35 41 58 68 95 82 42 32 30 23
10 9 11 14 16 17 17 16 17 17 25 34 25 29 26 30 41 47 45 46 48 52 55 70 17 15 20 20 20 21 19 17 18 24 32 37 36 30 71 83 43 20 14 12
12 8 9 11 14 15 16 17 18 17 24 28 22 23 25 24 29 42 47 46 48 50 55 63 50 11 16 17 19 22 21 18 19 21 26 27 40 32 58 76 59 20 18 18
10 10 10 10 12 14 14 15 18 18 20 32 21 21 20 24 25 30 41 46 46 48 55 61 71 21 11 16 19 17 20 21 14 14 33 26 29 57 91 92 50 22 30 35
11 10 9 9 10 13 14 15 17 16 18 18 21 22 23 30 23 25 28 40 48 49 50 64 68 56 12 13 16 19 19 16 7 18 32 27 25 25 79 41 40 42 41 44
14 12 11 8 10 11 14 15 16 17 16 16 17 22 33 22 20 22 22 24 35 47 49 55 42 23 7 8 13 16 12 7 11 15 20 17 19 22 21 29 36 39 44 45
14 13 12 10 9 10 12 14 14 22 18 15 16 17 18 20 20 18 20 18 22 40 47 47 28 23 22 9 7 7 6 14 16 19 22 16 15 20 24 32 33 39 45 43
12 14 12 11 9 9 10 12 14 14 15 15 14 15 17 20 21 19 19 17 18 29 42 38 24 23 26 23 13 10 8 17 19 25 26 23 20 25 28 31 34 34 37 44
13 13 13 10 10 9 8 10 13 14 21 19 13 13 14 16 18 17 18 17 19 23 39 45 35 22 24 26 20 11 13 16 19 25 27 28 29 30 31 33 34 37 35 36
14 14 14 13 11 10 9 9 12 14 14 15 16 14 12 16 20 17 18 16 17 23 35 45 44 25 23 23 27 14 16 17 19 23 26 28 33 35 35 34 33 32 30 33
15 16 17 14 13 11 9 8 9 14 17 14 14 13 14 14 15 17 17 16 17 20 30 38 43 47 27 17 24 23 16 20 23 25 23 23 28 30 31 31 29 31 30 32
16 17 17 18 14 12 11 10 8 9 14 15 16 14 14 14 14 16 16 17 16 22 27 33 38 43 40 24 18 28 21 32 33 35 38 36 32 29 28 35 40 31 31 34
20 18 18 16 16 11 10 11 8 8 10 13 14 15 15 14 16 16 17 17 19 19 16 16 37 39 41 39 20 22 31 33 42 39 43 50 55 55 55 58 57 53 42 48
22 22 18 18 17 16 11 9 8 8 9 10 13 14 15 15 16 15 15 16 16 17 21 12 11 12 22 33 23 19 29 37 42 43 45 51 56 55 53 51 56 65 68 70
24 25 23 19 17 16 14 13 9 9 8 9 11 12 13 14 16 16 15 16 16 16 18 15 11 10 15 19 18 16 25 38 44 41 41 46 39 40 44 52 56 69 69 72
29 31 34 30 25 23 19 16 14 13 11 9 9 9 10 12 14 14 16 17 17 16 15 22 11 11 14 20 14 15 22 30 32 37 38 34 29 34 40 43 38 37 48 59
27 29 29 29 28 29 22 21 19 16 15 13 11 10 10 10 10 12 15 15 16 15 15 21 20 12 14 18 15 15 15 19 22 23 26 29 30 37 33 28 20 15 20 27
35 33 33 32 31 44 34 40 32 41 28 16 16 13 10 12 13 11 13 15 16 18 19 26 18 14 17 17 15 17 17 16 13 13 20 30 34 28 22 17 27 33 38 36
37 44 44 37 33 30 23 46 29 31 31 22 20 16 11 13 18 16 15 23 21 17 20 26 12 15 17 16 16 18 20 23 25 26 30 29 24 21 21 33 36 37 38 39
26 30 34 36 34 28 40 42 38 38 34 32 23 22 25 13 18 21 23 25 16 16 11 9 13 14 16 16 16 20 21 22 22 26 26 24 22 23 30 32 35 38 40 38
26 31 31 32 31 30 46 50 46 46 53 47 31 25 23 18 22 24 24 23 21 15 12 10 13 16 18 24 25 27 29 24 21 22 23 24 28 32 33 34 35 36 41 48
27 29 30 29 30 48 44 42 46 37 64 62 34 42 53 45 42 30 37 25 23 22 16 19 22 19 22 34 36 33 29 26 25 25 24 26 32 35 36 38 38 39 48 54
36 35 35 40 70 63 41 43 45 52 79 75 69 71 74 79 82 81 79 76 72 75 70 63 54 34 34 33 27 26 26 28 28 28 33 34 36 37 37 41 49 54 56 65
82 61 46 64 91 54 39 38 44 68 76 86 74 85 88 91 94 96 96 98 99 98 96 67 33 30 29 28 30 33 34 35 36 37 36 31 28 35 41 54 63 72 66 72
80 77 87 68 71 81 57 58 84 83 83 91 89 89 99 99 100 97 90 80 62 59 47 43 43 42 42 41 40 38 38 38 36 29 25 24 26 34 52 72 76 79 68 67

GFSCGP_700_rhum_006.txt.gz
RH
22 18 18 18 17 16 15 17 15 16 24 22 25 28 45 42 39 37 42 44 50 59 54 48 18 19 20 20 19 21 21 22 22 20 24 25 41 44 38 38 39 58 62 36
15 15 13 16 17 17 16 16 16 16 22 26 22 25 29 43 39 39 36 42 45 50 56 59 42 23 18 16 15 15 15 16 21 22 21 26 39 46 47 44 45 31 35 26
15 11 10 13 16 16 16 16 16 16 19 21 20 21 26 35 36 36 37 38 41 46 50 55 55 21 20 19 18 17 15 15 15 19 21 24 37 40 93 49 80 19 21 13
15 13 9 10 13 15 16 15 15 15 20 23 24 23 28 30 39 38 37 38 40 43 47 51 57 49 15 14 16 18 18 21 20 19 18 23 26 37 41 33 67 16 14 16
11 12 10 8 10 13 14 15 14 15 16 25 28 27 26 27 32 37 39 38 40 42 45 50 52 55 40 11 10 12 14 18 19 19 18 20 30 33 39 24 18 19 25 18
14 10 10 8 8 10 13 14 14 14 15 17 20 26 23 26 24 26 33 38 39 41 44 47 52 54 41 16 6 8 11 14 17 18 20 20 32 30 33 53 23 18 25 27
13 12 9 9 8 8 10 12 14 15 15 16 16 25 25 23 26 23 30 36 36 38 42 45 48 34 28 20 6 6 8 11 14 14 12 17 31 32 26 22 16 22 26 29
14 12 11 9 8 8 9 10 14 22 18 15 14 15 18 25 27 29 30 35 33 32 38 44 34 24 24 25 19 10 8 8 12 8 9 19 26 24 21 16 21 25 28 33
10 12 12 10 9 8 8 9 11 13 13 14 13 13 14 14 22 24 26 21 21 30 40 42 41 28 28 26 25 19 12 11 7 9 14 20 22 18 22 24 28 36 36 39
12 11 11 11 10 10 7 9 10 11 19 21 13 14 15 14 17 26 24 20 19 18 33 38 39 33 30 27 25 20 12 14 8 13 16 25 27 28 28 31 34 38 38 38
13 12 11 12 12 11 9 8 9 10 11 15 19 15 13 14 15 19 21 22 18 18 24 32 32 34 33 34 26 23 17 13 14 16 18 27 31 31 34 36 35 36 34 31
14 13 13 12 12 11 10 9 8 10 13 11 12 13 12 12 15 18 19 18 18 17 18 24 32 32 28 22 25 17 23 15 17 17 17 25 27 26 27 29 31 32 32 31
11 14 14 13 13 12 10 9 9 8 9 12 14 14 12 13 21 19 17 17 17 19 21 22 26 41 28 16 23 17 21 19 16 22 25 24 24 24 27 33 35 41 41 37
13 14 14 14 14 13 12 10 10 9 8 9 11 15 12 13 16 16 16 16 18 18 20 28 31 38 34 20 17 23 18 25 17 24 35 29 31 34 39 45 47 48 52 46
16 18 17 14 15 15 13 12 11 10 9 10 9 10 14 13 14 17 16 17 18 18 26 25 28 30 37 36 24 34 31 25 24 30 36 36 33 40 45 48 46 46 52 58
15 18 22 20 17 16 16 14 10 10 11 10 9 9 8 11 13 15 17 17 17 17 18 24 19 17 31 41 26 25 34 24 32 30 33 33 34 35 36 45 47 44 52 60
16 16 20 22 20 18 16 16 14 12 9 10 9 8 8 9 11 14 18 18 17 16 16 17 21 21 19 17 17 19 31 32 36 32 28 27 29 25 35 42 39 42 53 58
18 16 20 24 22 26 18 16 14 14 13 10 9 9 8 8 9 10 11 14 19 18 16 16 16 23 24 19 15 24 42 40 29 35 32 30 28 16 31 30 36 48 44 43
22 22 26 28 29 27 24 20 21 20 19 18 15 14 13 11 10 10 9 10 10 18 17 18 16 15 23 22 14 16 22 20 23 24 26 24 24 15 30 32 44 40 27 20
31 28 31 31 31 34 31 34 34 36 33 32 32 28 27 20 13 11 11 11 11 11 13 16 16 15 20 22 17 16 20 15 16 13 12 17 14 29 34 44 28 20 29 35
34 37 36 34 30 28 36 41 41 39 34 33 30 28 25 24 24 22 22 13 20 16 12 14 27 34 29 23 14 17 18 15 16 15 14 23 23 38 43 20 23 34 34 35
30 32 37 37 38 43 46 54 56 48 46 38 33 30 26 20 19 18 21 22 25 25 23 23 24 38 24 11 13 19 19 18 22 20 22 31 42 35 21 34 35 34 33 34
31 29 26 32 34 33 46 50 48 46 52 41 34 32 28 31 37 41 48 29 21 23 25 28 38 32 26 25 23 31 28 24 25 28 40 41 25 30 27 32 34 32 35 37
28 30 29 25 27 45 54 60 65 48 44 48 39 37 28 58 64 54 44 35 26 23 31 47 28 29 37 45 36 42 37 32 36 35 28 31 33 31 33 34 32 31 33 43
59 51 48 28 50 70 78 83 81 38 36 33 26 45 56 72 71 69 63 62 58 55 46 65 56 62 60 59 49 53 45 34 31 31 31 31 34 32 28 27 24 30 36 53
89 86 76 75 77 64 73 79 60 40 35 34 46 56 60 66 69 69 74 85 89 99 96 94 94 83 82 74 48 36 33 34 33 34 36 34 30 28 25 24 42 52 78 72

GFSCGP_700_rhum_009.txt.gz
RH
20 23 20 18 16 17 16 16 16 16 18 22 24 24 33 38 39 40 40 44 48 34 30 41 32 22 24 16 15 15 16 12 16 21 18 20 23 37 41 36 33 33 45 63
17 21 20 19 17 16 17 16 16 15 18 22 23 25 25 30 24 38 42 41 44 47 41 27 33 26 19 17 17 18 19 20 17 18 21 21 24 28 31 33 29 33 28 41
18 21 18 18 18 18 17 17 17 17 18 22 26 28 27 31 25 36 41 38 42 43 47 47 26 20 18 16 16 16 15 16 13 13 17 22 21 21 35 34 19 65 25 20
18 18 16 13 14 16 18 18 17 16 16 20 27 35 34 34 37 39 45 37 37 40 43 48 46 37 17 14 15 16 18 17 15 17 16 17 20 23 32 36 28 44 17 13
14 18 17 14 11 12 16 17 16 16 16 26 24 25 23 37 39 33 40 39 37 38 40 37 31 27 31 34 22 13 13 17 18 19 19 18 17 20 23 32 24 9 14 13
17 15 13 14 12 10 11 14 15 16 15 18 23 22 26 34 36 32 37 38 37 37 39 41 30 29 32 32 31 14 10 13 15 18 16 16 12 21 23 29 16 12 18 18
14 14 15 12 12 10 9 11 15 19 20 22 15 24 27 24 27 26 33 40 37 39 40 41 42 27 24 26 22 10 5 8 11 16 12 11 10 18 24 19 10 12 17 19
14 14 14 13 11 10 9 9 13 26 24 20 15 17 15 22 21 23 32 34 37 37 36 39 33 20 17 22 27 26 15 7 10 12 13 8 9 19 22 21 17 21 26 29
13 13 14 14 11 10 9 8 9 11 14 18 16 14 13 14 18 23 26 30 35 33 34 43 36 24 27 21 24 26 21 13 10 11 13 7 11 17 20 21 17 25 33 36
13 14 13 12 12 10 9 9 9 9 16 21 15 15 15 16 15 24 25 25 27 26 32 41 40 34 21 18 26 26 26 18 12 13 8 10 13 23 25 22 20 26 35 37
13 13 13 13 12 12 10 9 9 9 10 16 22 17 14 13 14 21 26 24 23 24 25 37 40 34 18 18 27 26 26 22 19 15 13 12 16 29 30 25 26 32 35 36
13 12 13 12 12 12 11 10 9 10 12 11 12 14 13 12 14 17 17 24 22 23 22 27 38 32 22 15 22 22 24 22 23 22 27 11 21 28 29 33 36 35 35 38
14 14 14 14 12 12 12 11 10 9 9 12 20 14 11 12 13 15 27 23 24 21 20 26 33 29 25 14 16 22 24 21 23 23 30 19 19 24 22 24 30 34 37 40
15 14 14 16 16 12 13 12 11 10 9 10 10 10 12 12 13 14 16 21 19 18 18 25 31 30 22 16 12 17 23 23 21 25 27 33 23 18 20 23 28 38 40 40
15 17 12 13 14 14 12 14 12 11 10 10 10 9 9 11 13 14 17 17 18 19 19 21 24 24 22 23 13 15 26 30 24 22 27 32 26 19 24 29 33 37 42 43
18 22 14 15 16 16 14 13 14 11 10 10 10 10 10 9 9 12 18 17 18 18 18 19 21 25 25 22 14 13 20 28 38 24 20 28 25 22 23 33 42 46 50 50
39 29 23 19 17 19 19 13 14 15 12 11 11 10 9 9 9 10 12 12 17 18 20 25 27 25 22 20 13 11 12 15 31 35 23 24 23 17 20 30 41 46 49 50
44 32 32 22 20 35 21 18 16 16 16 13 11 10 11 10 9 9 9 19 19 22 20 20 18 20 26 26 28 24 19 14 18 27 29 24 24 23 26 34 42 45 48 49
34 32 33 27 25 23 22 21 18 17 16 16 14 16 12 10 8 8 8 8 10 17 27 21 17 19 17 17 20 22 28 18 11 20 19 17 20 22 22 28 44 46 49 56
23 32 33 28 28 33 22 22 24 22 24 26 22 20 18 17 16 11 12 11 12 11 11 12 19 21 19 17 16 16 18 25 15 13 18 17 23 27 20 24 43 48 66 54
41 39 35 35 22 26 30 24 31 35 44 40 29 27 27 23 23 18 16 16 16 12 11 11 12 14 18 20 18 16 16 18 21 16 28 33 40 28 17 31 52 67 62 54
74 73 46 39 36 38 36 38 38 49 53 45 36 31 27 26 25 24 22 19 17 15 15 18 12 13 12 18 23 20 17 24 18 37 42 34 22 17 34 61 69 64 38 34
78 64 65 56 45 37 54 52 47 47 51 53 42 35 30 28 24 22 21 24 20 17 17 23 22 25 18 14 29 38 30 15 34 57 40 20 25 33 43 68 68 33 32 37
71 65 62 54 45 64 76 54 64 57 45 46 42 37 32 28 28 27 25 27 36 27 28 19 18 25 31 24 22 25 26 19 25 52 48 37 51 56 67 68 28 34 34 30
88 70 72 52 44 77 60 99 87 68 53 48 40 34 29 26 27 41 38 39 27 38 43 30 23 21 25 41 48 37 39 20 32 69 69 62 56 52 33 32 35 31 30 28
77 68 65 52 63 80 100 93 74 63 55 45 38 32 26 30 41 61 61 64 46 54 94 40 26 21 21 27 34 44 67 76 89 80 67 49 34 33 35 34 34 26 29 34

GFSCGP_700_rhum_012.txt.gz
RH
25 28 24 22 23 22 23 20 17 16 16 17 20 24 31 34 37 35 38 42 43 36 15 17 25 39 18 16 16 17 16 18 20 18 20 21 24 28 38 42 32 35 37 61
23 26 24 22 20 20 22 19 16 16 16 16 27 25 30 34 33 36 38 39 41 44 23 17 19 24 18 15 14 15 15 16 16 19 22 22 25 28 28 33 34 36 37 35
20 20 18 23 20 19 17 18 16 16 16 18 26 30 37 35 36 39 39 37 39 41 41 20 18 15 16 15 14 15 17 18 18 19 24 25 22 20 17 29 40 30 34 30
24 20 19 16 20 20 19 19 18 17 17 18 30 32 34 36 39 41 38 36 36 39 43 41 26 13 14 14 16 17 17 16 15 14 14 15 16 19 21 26 44 31 82 22
20 20 17 20 18 17 17 18 18 18 18 18 18 24 30 28 36 39 36 30 33 37 41 38 31 28 21 13 14 15 15 16 17 16 15 15 16 15 18 21 32 33 23 12
18 18 17 17 18 16 16 18 17 16 18 22 19 24 30 28 30 31 32 33 31 35 38 39 35 35 35 39 38 34 25 18 16 14 14 13 14 13 13 22 28 31 10 14
22 21 16 15 17 17 15 13 13 18 20 25 17 20 26 22 24 27 29 32 33 34 35 38 37 34 32 30 30 33 44 46 17 14 12 12 10 10 12 23 25 15 11 16
21 21 21 18 16 14 13 15 12 21 25 22 16 20 18 16 20 24 25 27 31 34 34 36 36 26 26 31 30 31 34 45 31 13 11 10 9 8 12 21 19 9 17 24
14 16 12 13 14 15 14 14 12 11 12 17 15 16 15 15 17 19 23 26 28 32 33 32 32 34 27 33 29 29 32 38 41 9 9 9 10 8 13 18 21 15 24 35
13 14 13 11 11 14 15 12 12 11 16 17 14 16 15 15 14 14 14 18 25 29 35 32 30 26 24 31 35 33 30 29 35 14 10 8 8 9 14 19 20 19 29 36
14 12 10 11 13 14 14 14 12 10 10 14 22 13 12 13 14 14 16 16 24 30 34 30 29 28 26 26 33 37 39 34 27 20 19 16 6 11 17 22 18 17 29 36
14 12 14 15 12 14 14 13 12 11 11 10 10 11 12 12 12 12 15 18 23 27 27 29 28 28 29 31 34 35 39 37 25 21 18 25 9 10 21 30 21 22 33 37
19 17 17 16 14 12 12 14 12 10 10 10 15 12 10 9 11 16 15 19 26 30 28 33 28 24 27 32 25 32 31 25 31 21 21 25 14 11 22 26 34 32 34 39
25 19 18 17 15 14 14 12 13 12 10 10 10 11 10 10 9 10 11 14 14 28 31 30 30 27 27 32 24 31 24 18 32 26 22 27 28 15 16 20 23 34 36 38
34 26 18 16 17 14 14 12 12 13 11 10 10 10 9 8 10 12 18 21 17 19 22 23 22 23 26 32 27 18 17 19 26 24 21 24 30 20 16 18 21 24 30 34
34 36 31 24 18 15 14 14 12 13 14 11 11 10 10 9 8 10 11 11 22 21 21 19 20 20 26 30 27 22 17 12 24 28 21 19 27 22 12 13 18 24 31 35
47 52 45 33 22 17 17 14 14 13 12 14 12 11 11 10 9 9 9 10 12 19 18 20 20 20 30 23 22 23 19 15 23 30 34 25 24 30 12 13 18 26 34 39
53 48 47 42 29 30 17 14 14 14 14 14 14 12 12 11 10 10 10 10 11 17 19 16 21 23 25 25 25 23 14 13 12 20 33 36 30 26 19 13 16 22 34 41
48 45 48 40 40 26 19 20 14 16 15 14 14 16 12 12 11 11 10 9 8 14 20 18 18 20 23 24 24 24 19 22 19 20 19 30 33 27 26 12 18 28 35 38
54 43 41 41 42 40 19 21 18 21 25 20 18 19 15 13 12 12 11 10 9 9 9 16 23 27 30 30 24 23 24 26 25 16 15 16 25 42 36 28 19 28 37 46
54 61 50 49 47 34 38 25 22 25 36 32 34 26 19 17 14 12 10 10 10 10 9 9 12 20 20 21 25 20 20 19 17 16 17 15 16 31 47 44 31 31 39 52
72 84 74 57 61 64 45 34 31 28 35 36 39 33 24 20 18 19 18 18 18 15 13 12 12 12 20 15 18 19 19 20 19 16 16 17 21 22 44 49 38 60 63 53
94 86 60 56 75 64 70 64 57 39 30 41 43 36 32 29 28 26 24 21 19 18 20 20 20 14 11 11 17 17 16 19 21 19 17 20 21 22 28 31 57 68 61 65
89 84 72 62 68 73 73 59 67 62 54 46 40 38 35 33 30 28 27 24 23 23 22 21 22 20 22 20 13 13 14 15 18 20 27 13 13 20 35 46 69 76 75 72
95 92 88 63 61 73 97 68 67 73 57 53 46 39 38 37 33 28 24 21 22 22 24 23 22 27 37 34 20 22 18 19 29 25 26 18 30 64 69 77 81 80 76 65
100 97 100 80 64 100 99 100 99 70 52 50 47 45 42 38 35 28 24 15 19 46 44 28 25 24 29 49 67 29 31 40 54 39 33 57 52 72 84 89 89 91 67 40

GFSCGP_700_rhum_015.txt.gz
RH
23 22 10 9 18 20 22 23 24 21 20 18 25 34 35 34 38 35 36 38 41 40 13 18 15 16 20 31 30 22 20 21 21 18 20 21 22 25 28 40 37 33 47 76
25 24 13 12 18 26 22 22 24 21 20 17 17 19 24 33 28 23 26 34 38 41 34 15 16 14 14 16 17 16 15 22 19 18 22 24 27 28 31 34 39 40 38 38
20 18 19 20 22 24 23 22 23 22 19 17 17 20 36 38 36 35 36 34 38 39 40 35 15 12 11 13 14 13 14 15 17 19 22 23 26 23 20 20 28 43 44 34
22 17 17 21 22 22 22 22 22 22 19 17 19 39 38 37 44 38 36 35 38 41 41 43 43 27 9 9 12 13 14 16 17 19 21 22 23 23 25 29 36 49 36 32
20 11 17 20 16 18 18 19 20 19 18 18 17 21 22 37 43 38 34 34 36 37 40 35 30 41 31 10 10 12 15 16 19 18 16 17 17 18 25 29 26 39 32 35
14 15 17 13 18 15 15 19 19 18 18 22 18 21 19 23 35 31 30 32 30 30 32 32 29 38 40 39 32 13 14 16 17 16 16 15 15 17 20 20 20 25 25 13
26 22 18 19 19 19 19 19 20 20 22 22 18 19 20 18 17 18 26 26 28 30 29 32 31 31 40 38 41 43 24 17 16 17 18 16 14 17 20 18 20 28 17 13
27 25 24 19 19 17 19 19 19 24 30 20 16 20 19 17 16 27 27 24 26 29 30 30 35 25 26 33 35 37 38 40 37 23 17 16 16 17 18 17 19 23 10 16
23 24 18 19 16 17 17 20 17 16 15 19 16 16 16 17 16 17 17 26 25 28 29 30 31 34 28 26 28 32 36 38 42 47 54 28 16 15 14 14 18 18 11 17
21 16 15 12 17 17 16 16 16 16 21 22 16 13 14 15 16 16 16 19 25 26 27 30 32 31 32 28 26 28 33 35 38 44 52 38 16 14 12 13 14 21 18 27
28 22 16 14 15 14 19 18 16 15 14 17 18 14 12 12 14 15 16 15 15 18 21 22 28 30 30 33 30 27 33 37 37 42 51 46 14 12 11 11 14 22 21 36
24 24 21 17 14 12 12 15 16 15 14 13 12 12 11 8 8 14 15 15 14 15 15 18 24 30 29 31 31 25 28 37 39 39 47 31 17 11 9 9 15 20 21 35
32 29 22 16 15 14 16 13 13 14 15 15 14 13 10 10 10 12 11 11 15 16 19 18 25 30 26 28 30 26 27 31 39 41 44 34 22 17 7 10 19 21 17 31
47 43 36 28 18 16 16 15 14 14 15 15 14 12 11 10 10 9 9 16 16 14 14 20 25 32 29 29 28 29 28 28 35 41 41 29 22 24 14 10 24 26 20 30
50 48 40 33 30 23 21 18 14 15 15 15 14 13 11 10 9 9 9 8 10 13 15 18 28 28 32 33 33 30 30 30 30 38 39 27 28 21 20 10 23 27 25 29
52 52 44 39 29 22 19 18 17 14 12 12 13 13 11 10 10 9 8 8 13 15 19 25 29 26 27 26 28 28 28 25 23 35 35 33 29 22 28 17 16 18 24 31
46 51 46 48 29 24 22 17 17 17 15 13 12 13 13 12 11 11 11 9 10 13 16 30 33 28 22 22 21 24 27 25 18 21 26 29 34 25 24 29 17 16 17 23
38 52 55 55 30 43 20 19 18 16 16 14 12 12 13 13 11 12 12 9 8 10 11 19 26 22 21 20 20 23 28 24 21 22 21 19 31 29 22 28 23 16 16 18
32 45 55 47 49 34 21 22 22 17 16 15 14 13 12 14 13 12 12 11 10 10 10 13 18 22 21 19 19 22 28 25 24 19 25 27 35 37 27 24 28 15 15 18
28 31 61 46 53 52 36 29 27 16 17 15 15 14 13 15 15 14 12 11 10 10 10 10 19 21 20 18 19 27 24 25 24 16 14 18 24 33 42 40 26 26 16 21
57 63 93 66 53 42 43 32 40 34 19 17 16 14 13 14 15 15 13 12 11 11 11 10 9 14 19 20 26 21 28 27 24 22 19 19 24 20 29 40 47 29 27 25
62 69 92 82 61 65 54 56 48 45 27 23 17 18 19 18 16 15 13 13 12 11 10 9 9 9 11 12 23 29 34 29 30 22 23 20 19 19 17 26 42 50 41 26
75 66 66 77 57 41 56 75 70 56 60 53 37 34 27 22 18 16 14 14 13 12 11 11 11 11 10 10 18 20 18 20 31 29 22 20 27 19 18 27 36 49 53 60
69 80 64 66 55 50 54 74 80 74 65 53 44 38 34 31 28 27 26 25 23 22 22 20 18 15 13 12 14 13 15 14 18 18 18 21 22 22 23 20 26 42 58 64
81 83 80 75 59 45 54 81 74 83 68 54 43 37 34 32 30 28 28 27 26 25 25 25 24 24 24 21 19 15 14 13 12 14 17 19 19 22 21 23 33 48 59 76
86 98 88 76 66 50 59 84 82 92 78 66 56 48 41 38 36 35 33 29 25 23 21 17 14 16 17 20 22 22 21 21 20 18 21 20 24 25 29 24 34 59 79 93

GFSCGP_700_rhum_021.txt.gz
RH
23 26 26 22 18 24 20 22 23 23 22 23 25 20 23 29 26 32 38 45 47 40 21 25 25 24 24 24 23 25 24 27 26 24 23 25 26 30 33 39 43 56 52 51
24 22 21 19 15 16 17 20 23 22 21 23 23 24 19 23 25 30 33 40 41 44 20 18 19 17 19 20 21 20 21 24 21 19 20 23 28 32 39 43 44 42 40 41
20 23 25 18 14 16 16 18 20 23 22 22 23 24 24 19 18 19 19 31 44 44 28 16 16 16 15 17 16 16 16 18 19 19 19 20 24 26 28 27 32 38 43 40
24 28 19 15 24 16 17 13 20 22 23 22 22 22 23 21 19 18 20 23 30 43 43 24 16 13 14 15 15 16 17 17 18 15 13 16 20 21 24 28 34 34 36 41
18 22 24 30 13 18 18 18 12 21 22 23 22 25 24 24 21 19 19 22 26 34 42 41 39 30 14 14 15 15 16 17 11 12 11 13 16 20 25 27 30 31 35 45
20 21 23 16 18 18 24 25 22 24 24 24 22 23 22 25 22 20 19 21 23 28 36 42 41 40 33 21 14 14 16 15 12 13 15 16 17 19 21 24 25 28 28 36
25 24 20 19 26 23 26 22 22 21 22 21 20 23 22 23 22 21 18 22 22 26 30 36 40 39 42 40 24 12 14 14 14 13 15 16 17 16 18 20 21 22 24 27
24 26 24 19 25 24 26 20 15 21 16 15 20 21 21 20 21 20 18 20 24 25 28 30 34 34 37 37 42 37 14 10 12 12 14 15 16 16 16 17 17 19 21 27
22 21 20 21 20 23 26 24 17 17 17 18 15 18 18 19 20 19 19 20 23 24 21 23 26 28 32 36 36 40 44 41 20 11 12 14 16 18 16 18 16 17 20 23
25 27 23 24 23 23 21 20 22 18 18 18 15 20 15 15 17 19 18 18 21 19 22 20 25 28 30 31 33 36 37 42 45 45 37 20 16 17 18 21 22 19 18 19
27 25 24 26 25 23 24 23 20 19 16 12 12 11 13 12 13 15 16 17 18 19 17 16 17 22 27 30 31 33 33 34 38 42 46 47 44 43 46 45 40 27 22 17
36 30 26 26 27 23 23 22 22 18 24 17 13 11 9 10 11 12 14 16 17 18 17 16 16 18 21 26 29 31 32 32 33 35 41 43 46 50 51 54 60 54 21 17
38 37 32 28 24 25 25 23 22 19 18 21 15 12 9 12 12 13 14 15 15 15 17 17 16 16 14 15 18 28 31 29 31 33 38 40 43 46 38 42 57 65 32 15
45 42 37 26 25 25 25 24 25 22 20 20 20 14 14 10 10 10 10 10 13 15 15 16 16 15 15 14 15 18 23 31 32 30 35 38 40 41 40 40 48 46 41 16
47 54 45 42 36 35 33 28 25 27 24 21 18 18 19 15 11 9 9 8 9 10 11 12 12 14 14 14 14 19 18 26 32 34 33 34 39 42 45 45 45 28 29 14
45 54 43 46 41 42 41 32 29 31 26 27 24 23 21 17 15 13 10 9 9 10 10 8 9 11 12 13 16 18 21 27 30 33 33 34 35 36 36 44 47 42 27 19
43 47 47 43 43 42 38 32 34 31 31 27 24 23 18 15 15 14 14 13 11 9 8 8 8 10 11 13 17 22 22 26 28 28 32 33 34 36 37 40 43 43 28 24
46 42 48 43 48 41 30 26 26 28 24 21 19 18 17 15 14 14 14 14 13 13 11 11 11 10 10 14 20 23 25 26 29 29 24 28 29 31 34 35 39 41 39 26
38 58 48 38 38 36 34 35 35 33 30 28 27 22 17 16 17 15 14 13 13 13 12 12 12 10 10 14 23 22 27 26 29 29 24 25 26 27 28 35 36 38 42 37
32 55 70 48 32 32 34 29 34 30 42 28 22 20 20 17 15 15 14 12 12 13 13 12 12 9 11 13 22 19 25 22 26 25 24 24 24 26 27 32 36 38 42 44
74 82 74 62 52 38 34 37 44 49 36 34 32 20 17 18 16 14 14 14 12 11 14 12 12 10 10 10 12 20 21 20 21 21 21 23 22 25 27 28 34 40 38 46
68 83 88 70 57 50 31 28 48 50 44 38 31 24 20 16 15 16 14 14 14 14 15 14 12 10 10 10 11 11 16 20 21 22 23 21 21 27 28 28 34 37 34 41
76 66 81 62 47 45 34 32 32 31 28 27 24 32 20 17 16 15 14 14 15 13 14 15 12 11 11 10 10 10 11 21 22 23 24 23 22 26 28 26 32 36 34 32
93 81 86 71 65 68 38 32 41 29 32 30 35 44 29 21 16 15 15 16 16 14 14 15 14 13 11 11 10 10 10 9 11 17 22 22 21 25 31 30 30 27 35 28
90 89 81 85 59 32 55 58 66 61 42 23 24 70 62 38 23 21 20 21 21 15 16 18 18 15 13 13 11 10 10 10 10 10 10 10 11 13 19 24 28 31 31 32
60 63 70 78 76 52 45 64 70 53 55 57 65 69 68 52 55 48 44 50 49 42 35 31 28 22 20 20 17 15 13 12 12 12 12 12 12 12 12 12 14 15 18 22

GFSCGP_700_rhum_024.txt.gz
RH
24 25 20 19 23 22 21 21 23 23 26 27 27 27 29 40 55 57 61 37 46 45 42 27 28 28 27 31 30 27 26 28 30 28 26 28 28 28 28 28 33 39 46 46
30 24 20 20 18 21 22 20 20 22 24 24 25 24 27 33 51 58 66 33 38 48 48 25 28 25 24 24 25 26 24 25 27 26 25 24 26 28 29 32 32 35 43 40
22 22 22 21 22 22 21 21 20 21 23 24 24 24 24 24 32 47 56 63 31 41 45 30 19 19 20 20 21 22 23 22 22 22 22 21 24 25 28 31 35 35 36 34
21 21 24 22 22 21 18 18 19 19 21 23 23 22 22 24 28 35 44 47 36 37 40 42 17 18 13 13 19 21 21 20 19 18 18 18 19 21 25 28 30 32 35 36
22 23 23 22 22 21 16 13 15 17 18 20 22 22 20 22 25 27 35 40 44 29 36 41 33 23 14 14 15 19 18 18 18 17 17 15 17 20 25 26 28 29 29 32
21 20 20 22 23 22 20 16 14 16 16 17 20 21 20 21 25 26 35 38 21 27 28 34 40 21 18 14 15 16 16 17 17 16 16 12 14 16 20 22 24 25 26 28
22 20 22 22 23 23 22 19 16 14 14 15 16 19 21 20 21 24 26 30 23 22 24 28 36 39 31 20 14 13 14 14 15 15 10 10 11 15 18 21 25 24 24 25
20 20 20 21 22 21 21 18 12 16 11 10 15 17 18 20 22 23 25 23 36 24 25 26 30 35 37 36 34 19 14 14 15 14 12 12 15 16 18 18 18 19 20 23
19 19 18 20 21 20 22 20 12 10 12 12 9 12 16 19 19 21 22 23 26 25 24 26 27 29 34 33 34 39 38 16 12 13 14 11 14 16 14 16 18 18 18 21
22 19 19 20 20 19 18 17 15 12 15 16 9 11 13 14 19 20 21 21 24 31 22 23 22 25 25 28 32 37 40 42 34 15 10 10 12 13 14 17 19 18 17 19
30 22 19 19 20 18 19 18 16 13 11 11 11 8 10 13 18 19 20 22 22 28 23 22 20 19 24 29 29 28 34 39 42 42 42 32 19 13 14 16 18 19 20 18
33 27 24 20 19 18 18 18 17 14 15 13 11 8 11 12 14 19 18 21 21 24 24 19 17 16 18 24 29 29 25 30 34 37 41 43 46 41 33 26 22 22 22 21
46 30 24 22 22 22 19 18 17 16 13 15 13 10 13 11 15 22 23 23 23 25 20 17 18 16 16 20 24 27 29 31 30 32 34 37 42 45 44 44 49 52 51 40
50 36 26 20 21 22 21 20 18 18 16 13 15 12 14 13 18 19 18 17 17 17 17 17 17 17 16 16 14 16 21 25 31 28 28 29 36 34 39 42 48 52 53 53
52 40 42 33 36 30 22 21 20 19 18 16 14 15 15 16 17 19 19 17 10 12 12 13 13 17 16 15 15 15 14 13 17 32 28 21 31 36 39 41 45 49 52 49
53 47 49 41 39 37 31 30 24 22 20 20 18 18 17 18 20 18 20 12 10 10 11 10 10 11 13 14 14 15 14 13 19 25 32 26 26 35 37 40 42 44 46 45
60 46 50 36 36 35 34 31 30 28 26 25 24 23 23 23 23 22 10 9 8 6 8 9 10 9 9 11 13 14 14 15 20 18 28 32 30 31 36 38 40 42 44 46
61 54 46 35 41 40 28 27 29 29 27 27 26 26 25 25 25 25 22 18 10 9 7 7 9 13 9 10 12 12 13 15 20 23 27 30 34 32 34 36 36 37 40 43
56 56 40 39 37 30 29 32 32 32 28 27 27 29 28 27 24 23 14 13 10 8 10 11 10 11 11 9 10 12 13 15 18 24 26 30 30 27 34 35 35 37 38 39
49 67 50 36 35 32 28 29 48 47 41 38 50 45 52 49 32 24 13 17 16 13 13 14 12 12 11 11 9 12 13 16 16 22 27 29 30 28 24 30 29 31 33 37
39 55 54 42 36 31 30 52 77 47 63 85 70 78 24 20 36 22 22 16 13 12 12 13 12 12 12 11 9 10 13 21 21 28 27 28 30 28 25 26 24 25 28 32
44 44 40 41 37 34 32 38 50 74 89 66 52 41 34 24 19 16 17 16 13 14 12 11 12 14 12 12 10 10 11 15 23 25 26 23 26 26 24 23 22 23 26 30
50 46 41 41 36 38 40 36 47 50 56 48 37 33 27 23 22 20 15 15 15 14 14 13 14 15 14 12 11 10 10 11 14 19 22 22 22 21 21 22 22 22 27 29
62 61 62 52 51 57 63 54 58 68 37 44 32 27 24 22 21 19 17 17 16 14 14 14 14 14 15 12 11 10 10 10 10 12 16 18 20 21 22 23 22 20 21 29
67 81 76 75 71 59 58 61 64 72 75 30 29 26 24 22 24 20 21 18 18 15 14 15 15 14 15 12 11 11 11 10 10 10 10 13 18 19 19 20 20 22 26 29
89 87 84 67 65 68 69 67 62 74 37 24 22 19 22 25 26 42 33 28 28 19 17 17 18 17 15 16 13 12 11 11 10 10 10 10 10 10 10 10 10 10 10 11

GFSCGP_700_rhum_027.txt.gz
RH
47 45 41 28 35 29 22 19 19 20 21 22 25 29 27 30 37 41 54 65 72 74 76 72 32 53 56 64 34 31 34 30 30 30 30 30 30 31 32 33 32 27 33 36
36 36 29 28 21 24 24 21 18 18 19 21 24 25 23 26 31 38 45 60 67 73 79 76 27 39 31 36 27 26 27 28 28 28 29 30 29 29 30 28 25 27 31 36
24 20 22 17 15 16 18 18 18 17 18 19 22 24 24 23 27 38 43 54 61 68 73 42 35 22 29 27 22 23 23 25 25 26 27 28 28 28 27 27 27 27 28 31
25 18 18 16 15 14 12 13 16 16 17 18 20 21 23 22 23 32 38 46 56 62 72 69 40 20 20 19 19 21 23 22 23 24 23 22 22 21 23 26 28 31 35 35
25 18 17 18 15 14 13 12 13 15 17 18 19 21 20 21 21 22 28 37 47 55 65 75 38 28 17 16 16 20 20 22 20 17 17 15 19 19 22 24 25 24 21 23
20 17 16 17 16 15 15 14 12 12 13 15 17 19 20 19 20 21 24 28 36 43 56 70 71 43 23 18 15 16 19 22 20 16 16 13 14 16 19 22 21 22 20 22
19 18 18 16 17 16 17 15 12 11 11 13 14 16 17 17 17 20 22 24 29 36 51 66 76 44 33 16 13 14 15 19 15 14 16 15 13 14 17 19 22 23 20 20
17 18 18 17 16 16 17 14 11 15 10 9 11 14 15 17 18 18 21 23 29 35 46 58 70 50 37 36 16 10 12 14 14 15 16 15 13 12 13 14 16 18 17 17
16 17 17 17 16 17 17 15 11 8 8 7 7 9 11 14 16 18 19 21 24 30 40 54 63 56 33 36 31 28 11 11 12 13 14 13 8 9 12 15 16 13 14 16
19 17 17 17 17 17 16 15 13 10 13 12 8 9 10 13 16 16 20 21 22 23 37 47 58 55 29 32 28 25 30 26 9 9 11 12 12 10 14 15 14 14 14 16
24 19 18 17 17 17 17 16 14 11 9 10 12 9 8 11 15 17 18 20 21 21 32 43 53 55 29 28 32 30 32 33 38 34 21 11 9 9 11 12 12 14 16 15
24 23 23 17 16 17 16 15 16 13 13 9 8 9 10 9 11 16 18 19 19 21 26 40 46 54 59 34 27 27 26 28 31 35 38 39 32 16 12 11 12 14 17 17
29 28 25 20 17 17 16 14 14 14 11 11 10 10 13 13 13 16 17 19 21 22 26 32 39 45 50 54 28 28 28 24 26 32 34 35 38 38 30 25 18 15 15 18
47 36 27 20 18 17 17 15 14 14 14 12 12 10 14 15 18 21 20 20 22 24 28 30 30 31 40 47 21 23 28 29 26 27 31 28 24 22 27 35 39 37 34 32
49 43 32 26 20 18 17 16 15 14 14 13 11 13 13 14 19 19 21 23 24 27 31 30 32 38 39 43 21 15 19 20 19 23 29 29 23 24 32 36 36 43 46 46
46 44 39 30 24 27 24 18 17 15 15 14 13 12 13 16 17 19 19 20 22 23 25 26 27 19 17 18 17 15 14 13 13 13 13 17 31 26 22 29 33 39 42 41
58 42 39 35 32 31 30 23 20 16 16 15 15 15 15 17 19 21 23 23 22 22 20 22 23 22 14 16 17 16 15 14 14 15 14 18 22 31 29 27 31 30 33 40
57 56 48 38 36 36 28 25 23 22 19 18 18 20 19 22 24 24 24 24 24 16 13 14 16 20 24 22 25 18 14 15 15 15 14 20 19 29 30 26 27 29 33 38
47 54 45 38 31 28 27 26 26 25 24 24 24 24 25 25 26 26 26 22 18 20 19 21 20 19 22 23 24 28 21 14 14 15 14 20 19 20 30 31 27 29 35 36
41 43 49 39 33 31 26 27 29 29 28 26 25 25 26 27 29 33 37 29 29 24 25 24 24 27 26 15 10 8 9 11 12 11 13 16 20 24 25 32 32 34 33 34
35 41 43 41 38 31 32 38 34 36 60 51 35 40 46 50 56 51 42 28 22 18 19 24 22 15 13 12 10 9 10 8 8 12 14 14 19 24 28 32 32 34 35 37
38 36 41 39 36 35 30 33 47 65 93 94 84 83 79 90 82 31 26 25 24 22 18 16 15 13 13 13 12 12 12 10 9 11 16 19 19 27 28 31 31 33 33 32
46 48 33 36 36 38 36 38 40 55 70 79 89 88 84 78 54 20 16 17 17 17 16 14 13 13 12 14 13 12 12 10 9 10 12 20 28 29 30 29 30 31 29 26
56 48 42 45 43 43 43 44 49 54 60 67 72 69 85 81 32 24 20 19 21 16 15 14 14 14 11 13 15 12 12 11 10 10 11 13 14 17 20 22 23 22 22 22
56 54 46 45 47 50 52 54 55 50 57 53 72 74 56 40 26 22 20 19 18 17 16 16 14 14 14 14 14 14 12 12 10 10 10 10 11 13 16 20 23 23 25 28
61 57 70 58 54 54 58 59 60 58 38 33 36 44 36 29 24 21 20 20 18 22 18 17 16 15 14 14 14 15 13 12 11 10 11 11 11 11 13 16 16 15 14 12

GFSCGP_700_rhum_030.txt.gz
RH
46 41 35 30 32 32 30 25 21 21 23 25 23 25 31 40 59 65 59 66 70 77 78 82 81 91 97 75 41 38 28 24 26 28 29 30 29 30 32 31 32 30 21 25
44 41 34 31 30 31 30 25 20 17 18 19 23 22 28 35 39 50 54 72 68 72 78 79 63 84 83 53 28 30 28 25 24 26 28 28 29 27 29 30 24 17 21 28
41 36 35 32 31 25 28 26 21 18 16 18 22 21 24 30 33 34 48 40 59 66 72 74 52 43 46 36 20 23 24 22 24 25 25 26 28 28 24 20 16 17 20 26
40 32 29 32 28 26 22 25 20 19 17 16 17 18 24 26 26 30 37 43 55 63 69 74 64 45 21 24 20 19 23 21 23 24 23 22 22 22 18 20 22 24 26 25
38 31 23 22 24 20 15 14 17 17 16 16 16 16 16 23 23 24 33 38 51 56 61 72 68 44 31 22 18 17 20 22 21 24 22 21 20 18 20 20 22 21 23 20
32 32 22 16 17 14 12 11 11 12 13 16 15 16 17 19 22 21 26 31 41 47 58 64 70 64 58 39 21 16 16 21 21 21 20 18 16 15 15 17 18 17 14 18
27 30 27 17 15 14 13 12 12 13 13 14 14 16 17 17 21 21 21 24 31 42 50 59 66 66 48 31 15 13 12 17 20 19 16 13 12 14 13 15 16 14 14 12
22 21 24 16 14 15 13 12 13 20 14 11 10 13 14 15 17 22 21 22 26 34 45 50 60 62 35 33 29 9 10 11 16 16 14 13 14 14 12 14 15 15 14 13
19 19 19 17 14 14 15 13 12 10 9 9 8 9 11 13 15 17 17 20 22 26 34 45 50 56 32 34 35 19 8 8 12 14 12 14 15 15 13 11 12 12 13 13
20 17 16 17 16 15 14 14 13 11 17 15 8 9 10 10 13 15 18 18 20 24 29 40 47 51 28 31 35 29 13 8 9 10 11 13 13 13 10 10 10 12 13 12
19 18 15 16 16 16 14 15 14 12 10 12 13 8 8 8 11 14 15 17 20 24 30 38 45 52 29 30 35 29 22 9 6 7 7 8 11 11 7 6 9 13 13 11
22 17 17 18 16 16 14 15 15 15 14 10 10 10 9 10 10 13 16 16 20 21 28 34 40 50 56 29 29 28 26 25 18 21 15 7 7 8 8 8 9 11 11 12
37 25 20 22 17 16 16 15 15 15 12 12 12 10 12 12 14 15 16 18 19 21 22 31 39 48 57 34 25 27 27 24 27 31 35 34 24 13 8 8 8 10 12 13
47 41 26 22 20 17 16 15 15 15 14 13 11 13 15 14 14 14 17 19 19 20 21 28 35 44 51 52 30 27 27 28 28 26 30 33 30 28 25 22 17 15 15 14
48 44 33 24 21 18 16 16 15 14 14 14 11 11 16 16 18 18 19 20 20 20 22 26 32 39 40 42 42 46 36 31 29 26 23 23 28 29 28 30 30 29 27 26
52 45 41 33 26 24 21 16 15 14 13 13 12 11 16 19 20 24 24 24 25 28 30 32 33 40 48 49 44 41 38 30 27 28 28 26 27 29 28 25 23 28 28 33
60 54 46 39 36 29 24 19 16 14 13 13 13 13 16 18 19 21 22 23 24 26 27 30 31 33 36 40 43 34 23 14 15 16 14 14 14 14 21 30 27 21 26 32
53 58 56 45 38 38 28 24 22 16 14 14 14 13 15 17 19 22 23 24 25 25 23 22 23 26 25 26 24 22 18 17 15 14 15 15 15 14 19 19 28 29 24 23
46 52 49 44 39 34 30 28 24 22 18 15 15 15 19 22 24 25 26 26 26 27 27 26 25 21 22 25 24 24 24 20 15 14 15 16 15 15 15 20 20 30 30 24
40 44 50 46 38 35 31 27 25 23 24 28 23 23 23 24 25 30 27 29 30 36 29 28 27 24 21 21 24 26 27 25 20 16 16 15 15 14 14 19 19 23 30 30
38 43 41 44 44 37 42 31 27 26 64 54 35 28 26 30 38 58 38 36 30 27 26 26 25 25 25 26 24 24 26 28 16 13 12 12 12 12 13 17 22 20 24 31
35 42 43 39 41 47 45 42 49 84 88 63 55 57 49 47 58 70 60 49 40 29 24 21 24 26 26 27 26 22 13 12 10 9 8 8 9 12 13 15 24 24 24 27
48 46 40 41 39 41 52 48 65 58 74 78 82 75 81 81 77 76 49 45 39 33 24 24 22 23 27 20 14 14 12 9 10 11 10 9 9 11 15 18 28 27 28 31
62 58 54 56 48 44 51 53 48 54 54 64 68 74 91 92 75 53 42 28 29 98 34 18 17 18 23 16 14 13 13 12 12 12 11 10 10 11 15 26 31 32 31 32
61 66 67 60 49 49 50 49 53 56 58 56 54 68 86 70 50 34 41 31 33 31 22 21 19 17 14 13 13 13 12 15 13 12 11 10 10 11 13 18 20 23 25 27
61 57 57 56 55 60 53 55 54 56 58 58 50 52 63 50 42 45 56 28 25 26 28 28 30 19 16 15 13 13 13 15 15 13 12 11 10 11 12 12 20 27 31 32

GFSCGP_700_rhum_033.txt.gz
RH
19 36 32 33 35 36 40 43 34 31 29 32 31 27 41 61 60 51 48 80 87 46 81 92 85 95 86 78 50 34 22 23 26 27 26 26 25 30 29 31 25 30 25 24
41 41 34 33 33 34 36 39 37 29 25 29 31 26 51 47 46 41 42 71 79 63 70 68 85 71 63 44 36 34 25 20 24 25 26 26 25 29 30 27 24 20 16 28
44 28 38 41 34 30 33 32 34 31 22 19 22 27 37 44 34 47 48 60 78 45 62 53 70 44 32 25 21 24 26 19 21 23 24 24 26 24 26 21 12 13 17 24
43 41 38 41 37 31 30 31 31 30 26 22 17 27 26 37 36 36 41 57 43 54 66 59 53 68 31 17 19 21 25 21 19 22 22 21 18 18 18 16 14 15 18 22
40 44 40 37 36 33 31 29 28 28 26 23 20 20 23 25 33 36 35 38 53 61 74 67 57 44 43 26 20 20 21 21 19 21 20 18 17 19 14 14 17 22 25 24
37 42 39 40 33 33 31 30 23 26 26 22 19 18 18 22 26 34 34 40 55 55 44 49 51 55 52 33 20 21 20 19 20 18 18 17 16 17 13 13 17 18 20 17
31 33 41 32 34 25 28 25 20 20 21 21 16 15 16 17 20 22 32 38 38 46 42 45 54 46 66 40 30 14 16 15 16 18 16 14 14 15 12 12 14 15 15 14
32 27 32 36 26 23 22 20 15 25 21 16 13 14 15 15 17 22 22 26 34 43 34 40 41 48 48 39 30 16 11 10 12 16 17 12 12 11 11 11 11 12 12 13
30 27 26 31 29 20 17 15 13 13 14 16 12 10 13 14 16 16 21 28 33 34 35 46 44 44 49 36 29 19 9 10 10 12 17 12 10 10 9 9 10 11 9 11
25 23 24 26 30 22 17 15 14 13 22 22 14 12 11 9 11 14 14 22 26 32 32 37 42 44 25 25 26 29 10 9 9 10 13 12 11 12 12 12 10 9 8 9
34 22 21 23 24 28 15 16 14 13 13 25 28 16 9 8 8 11 19 16 21 24 32 29 41 42 29 23 27 28 24 8 10 10 10 10 10 11 13 13 9 9 9 12
55 39 22 21 20 19 18 14 15 15 16 13 14 13 11 11 9 8 17 17 21 23 26 31 35 39 30 26 21 28 18 5 6 7 8 8 9 10 9 9 7 6 8 10
72 44 29 21 20 20 17 15 15 15 15 15 18 15 12 10 10 8 12 16 17 22 27 29 30 37 33 25 19 30 16 13 4 4 4 5 5 5 6 6 6 6 7 9
79 57 50 33 21 19 17 16 14 16 16 15 16 13 13 15 10 9 13 15 15 16 28 27 30 34 33 22 19 27 30 23 21 17 18 13 9 6 5 6 6 7 8 9
67 57 48 36 24 22 22 17 16 14 17 17 14 14 14 13 15 13 14 16 18 16 21 32 31 33 36 32 21 25 34 31 26 27 25 24 26 22 18 14 12 12 13 13
61 60 53 40 28 26 26 17 16 15 14 16 15 12 15 14 14 16 16 17 20 20 21 31 34 33 32 32 34 22 28 36 40 29 26 26 27 30 28 23 20 19 18 18
74 57 58 46 37 36 30 28 16 16 15 15 16 13 16 15 16 15 19 21 23 25 27 40 43 48 44 41 42 38 35 24 24 28 28 29 27 25 27 30 29 26 24 24
84 57 53 53 41 47 33 29 26 16 16 15 14 16 18 17 23 23 22 23 29 32 33 35 38 47 53 56 56 53 48 39 19 18 23 26 24 20 18 17 21 28 30 27
65 55 53 54 46 39 34 36 31 21 31 31 21 15 19 22 23 23 23 23 24 26 28 29 30 28 34 46 52 56 48 37 23 19 17 15 14 15 15 15 14 20 21 25
49 51 45 58 56 49 49 36 29 30 50 57 33 26 25 23 22 26 26 25 23 23 24 25 24 23 22 23 25 26 29 30 26 19 17 16 15 15 16 16 14 13 22 23
44 52 46 47 49 71 60 46 32 40 86 79 58 35 28 30 52 42 27 26 23 20 18 17 18 23 20 21 22 24 29 30 25 31 27 18 13 14 15 14 13 12 13 25
47 44 50 45 55 85 80 60 66 80 82 80 79 76 69 87 88 65 47 33 28 25 23 19 20 22 20 20 24 25 27 28 27 29 26 22 20 18 16 13 12 12 12 16
77 84 85 76 83 90 91 77 61 57 72 76 79 81 83 84 85 77 73 59 46 31 27 26 26 25 28 26 22 23 23 26 29 28 22 18 15 9 10 10 10 10 12 14
85 74 71 67 78 82 87 98 77 57 55 62 70 80 86 83 81 71 66 62 51 39 33 29 27 26 24 24 25 24 26 24 22 20 18 12 9 9 11 11 10 10 13 19
44 60 62 60 65 72 64 85 83 54 53 52 57 67 74 86 75 70 52 51 49 46 37 30 25 21 18 17 18 19 20 17 14 14 14 12 12 12 11 10 11 12 16 28
77 82 82 72 59 72 61 56 53 51 52 57 50 48 58 73 64 58 56 45 42 40 33 21 22 22 19 18 20 15 14 15 14 12 14 15 14 13 11 11 11 13 19 21

GFSCGP_700_rhum_036.txt.gz
RH
14 19 14 13 47 46 46 46 45 45 38 36 34 45 42 46 56 48 42 38 35 32 43 68 69 66 74 53 31 24 26 28 29 28 31 32 31 28 25 29 28 30 28 24
24 22 7 20 40 38 39 40 42 43 36 34 32 42 51 47 50 47 39 44 43 36 24 43 89 68 62 43 34 31 26 30 27 27 29 28 29 27 27 28 26 29 27 25
25 17 17 26 33 33 37 38 39 41 32 35 32 42 63 62 56 51 47 47 44 38 35 28 55 43 41 37 30 29 28 28 26 26 29 29 28 30 27 23 23 20 21 28
32 20 30 27 31 32 34 36 38 39 37 36 31 44 54 46 54 58 51 43 33 41 41 40 42 41 30 29 29 31 35 36 27 26 27 26 20 18 20 22 21 16 20 25
30 32 44 28 18 37 30 32 37 36 33 33 32 27 37 41 46 49 48 39 39 41 39 39 44 38 32 43 48 32 30 34 29 25 24 23 20 20 23 21 11 16 21 25
27 34 31 40 40 35 40 32 31 31 31 34 31 29 24 53 42 37 36 37 37 43 33 34 49 56 46 42 48 41 33 27 27 24 24 22 19 18 19 14 12 20 24 25
32 27 41 43 43 44 42 36 36 37 34 34 27 28 26 21 37 33 22 32 36 40 38 40 40 56 49 43 33 23 24 21 20 22 22 21 18 18 15 12 16 20 20 16
33 31 29 40 44 42 41 36 36 48 37 28 23 20 20 20 18 28 26 22 30 33 34 40 33 32 30 42 39 28 16 16 16 18 18 18 18 17 15 12 14 17 17 16
33 30 29 32 39 40 40 35 32 23 18 18 17 16 16 18 15 24 29 33 32 31 34 39 36 40 36 33 34 35 24 14 13 14 16 17 16 16 12 10 10 12 14 15
63 45 26 31 33 37 36 31 31 28 24 26 18 13 12 17 17 14 14 18 28 32 33 35 40 40 42 30 26 30 31 14 11 13 15 16 12 12 11 10 10 10 10 12
89 77 30 29 30 33 32 28 23 24 20 23 26 15 12 13 16 16 15 14 18 32 33 33 39 39 40 20 28 27 31 21 12 11 12 14 10 10 10 10 11 10 9 8
96 98 56 28 26 29 32 28 21 16 18 14 15 14 13 12 10 9 10 12 16 28 26 26 28 31 42 20 24 23 29 24 10 8 8 10 9 10 11 12 11 10 9 9
93 98 74 33 29 23 25 31 22 18 15 14 17 14 11 12 12 14 14 9 12 16 27 26 32 32 41 25 21 20 29 30 8 6 7 8 8 8 9 10 10 9 7 8
97 93 95 73 31 26 22 24 30 17 16 15 14 14 12 10 12 14 9 9 14 16 17 24 26 28 40 29 22 18 24 23 16 6 6 6 6 6 6 7 7 7 6 6
98 84 67 64 60 40 25 22 24 19 15 16 14 14 11 12 16 10 8 11 19 16 20 24 24 29 39 34 24 18 24 18 13 4 3 3 4 4 5 5 5 6 6 7
97 78 70 46 40 35 33 23 23 20 16 16 16 16 13 12 16 10 9 10 12 15 20 23 25 26 36 33 25 18 22 26 23 17 15 13 13 11 9 7 6 7 8 8
93 88 77 53 42 36 32 30 28 20 16 15 17 16 17 16 19 18 15 17 16 15 18 22 27 28 30 32 31 21 20 29 28 28 25 24 25 25 23 22 21 18 16 15
94 78 69 52 48 48 46 39 35 26 26 20 19 16 16 19 18 18 20 17 16 21 24 28 30 31 33 34 35 38 28 35 32 27 31 30 29 27 26 27 28 30 29 25
93 90 61 56 56 42 37 40 45 54 60 45 32 18 16 22 21 24 26 29 36 42 43 40 43 41 38 39 40 45 46 44 46 27 21 24 26 30 30 28 25 25 28 30
96 85 68 49 68 75 84 50 45 53 66 77 51 52 33 26 21 26 28 30 33 36 38 42 51 52 50 51 51 48 46 48 42 20 18 23 22 16 16 16 16 18 16 15
92 65 53 63 83 89 81 62 54 68 79 100 91 59 43 37 34 31 28 26 26 27 29 29 29 41 48 59 58 58 51 46 44 45 39 30 24 17 16 15 14 13 13 12
97 98 92 80 94 99 98 82 75 71 79 99 100 97 71 55 43 36 30 26 25 25 26 25 25 26 26 30 32 30 28 34 37 33 30 27 26 22 17 15 15 15 16 14
96 98 99 99 99 100 100 99 87 83 68 87 97 99 100 86 59 51 37 29 26 24 23 22 21 21 22 22 22 23 23 25 28 28 28 25 28 26 24 24 20 18 16 13
80 86 92 88 91 92 95 97 90 85 72 63 67 97 97 91 81 67 52 39 30 27 25 23 22 18 14 16 20 22 27 30 31 31 31 29 28 27 26 24 21 17 10 10
93 88 47 53 70 85 85 96 90 72 73 68 57 66 92 90 86 76 65 52 40 33 29 25 24 24 21 18 14 16 21 25 26 27 28 28 27 26 24 23 15 11 12 11
100 99 73 37 36 53 70 85 87 94 71 61 53 53 71 81 79 76 74 67 56 51 46 42 38 34 29 21 18 18 18 18 19 22 22 19 16 15 15 14 12 12 12 11

GFSCGP_700_rhum_042.txt.gz
RH
23 22 16 7 11 10 44 47 36 45 53 57 55 58 57 55 50 53 56 43 22 29 42 42 53 63 60 49 37 22 22 31 34 36 37 35 38 45 52 54 33 33 30 29
35 23 16 16 16 12 25 48 50 48 56 56 54 52 53 50 43 45 50 48 28 27 36 43 42 54 49 44 36 32 23 24 25 28 30 33 38 44 46 41 35 32 27 23
49 29 23 20 18 18 15 41 42 46 51 56 52 48 46 43 42 49 54 58 48 31 27 34 36 37 46 38 35 33 33 23 24 26 29 33 37 37 34 33 34 31 29 25
55 45 38 31 20 18 14 12 40 48 46 43 49 47 46 44 38 38 46 56 52 45 31 30 24 28 25 26 32 24 20 22 23 26 28 31 32 31 28 29 31 31 29 26
49 50 48 46 34 20 15 12 16 44 46 40 42 39 42 41 40 37 39 44 54 49 49 39 22 19 21 28 22 17 19 21 25 26 27 30 31 30 28 29 30 31 29 23
42 45 48 43 36 39 27 30 22 30 42 42 40 40 40 37 35 35 37 45 49 52 48 51 35 29 23 29 31 24 20 20 26 24 25 27 28 28 27 27 29 29 25 19
30 34 41 40 41 41 41 34 45 51 49 45 41 41 40 39 34 35 36 36 39 44 51 49 48 40 32 27 28 34 29 24 23 24 24 25 25 27 26 27 28 26 19 18
45 40 30 38 35 40 43 41 41 62 57 39 39 41 38 40 35 34 28 29 39 39 44 50 50 45 41 33 22 28 28 26 23 20 22 22 23 24 24 26 25 22 17 21
74 65 35 39 36 35 40 47 40 37 36 39 29 36 37 35 34 33 25 26 27 32 38 38 48 49 45 41 38 16 21 23 24 20 18 19 19 21 22 23 24 21 17 24
87 95 39 38 42 36 38 45 47 44 55 48 37 32 33 33 32 30 30 24 23 24 29 34 40 44 44 41 40 36 22 20 17 22 21 18 17 19 20 24 22 20 19 23
40 72 70 55 44 39 38 43 47 38 44 47 39 29 26 30 30 29 27 23 24 20 21 29 36 41 41 44 47 38 33 25 22 22 24 21 19 18 19 19 20 21 22 22
61 87 95 65 42 39 38 38 49 46 44 45 35 33 20 25 25 23 26 22 21 19 26 26 30 35 40 36 38 38 42 39 36 23 24 23 22 21 18 18 18 20 20 18
70 80 98 76 40 43 48 36 41 48 46 42 45 38 24 23 20 19 21 24 20 17 15 15 28 29 32 38 38 33 36 37 40 48 35 26 22 20 18 17 17 18 18 14
93 97 87 85 52 59 45 38 34 37 39 42 42 38 37 22 17 14 14 15 16 17 16 15 13 26 30 34 40 35 31 49 49 45 51 28 18 16 17 18 16 15 15 12
84 70 91 69 66 72 62 43 42 36 37 37 35 33 32 28 22 19 15 14 13 13 13 13 12 13 26 30 36 44 26 38 43 48 43 24 16 15 16 17 15 12 12 10
80 89 96 93 76 70 61 49 44 42 37 33 29 33 32 27 22 17 16 14 12 12 13 14 13 14 22 26 34 43 21 24 37 36 17 20 13 12 12 14 13 11 11 12
90 94 98 86 63 62 66 55 59 47 38 36 35 31 25 23 22 20 16 14 11 13 14 15 14 14 23 24 31 40 30 22 42 40 48 18 9 9 9 10 11 11 10 12
96 96 97 89 72 72 76 68 64 53 46 34 37 32 30 27 22 18 16 14 12 16 13 13 12 14 20 23 25 34 36 21 40 29 14 7 5 6 7 8 9 10 9 8
92 96 95 97 75 82 85 86 79 61 72 47 38 33 29 24 18 18 18 16 18 11 11 12 11 14 19 21 23 30 38 19 38 42 28 23 18 11 8 6 7 8 8 8
97 97 97 98 98 95 88 77 86 71 92 96 52 37 31 28 24 22 20 19 15 9 11 13 15 18 20 22 25 29 38 20 32 36 32 33 32 28 27 28 30 33 34 34
98 97 96 98 99 100 92 81 84 76 81 98 99 75 69 42 33 30 20 19 21 10 14 14 17 17 19 24 25 31 38 25 26 43 39 47 47 45 49 52 49 43 41 41
98 98 98 99 100 99 89 89 74 90 93 99 100 99 91 66 68 52 36 29 25 17 14 15 16 17 19 25 28 32 38 37 41 39 36 50 46 38 42 48 51 41 36 35
96 97 97 98 99 100 100 93 96 83 77 98 100 100 100 99 100 80 60 52 38 30 26 22 19 24 23 25 31 33 38 44 45 39 35 32 52 50 34 32 31 27 24 19
98 99 97 98 99 99 100 100 93 83 83 93 98 100 100 100 99 85 62 59 57 54 54 43 27 31 36 34 34 35 37 41 46 48 48 46 46 42 43 48 36 30 28 27
100 97 95 97 98 99 100 97 92 85 85 83 88 99 99 99 99 100 81 58 57 54 53 50 51 49 52 52 49 48 45 45 45 45 47 48 44 42 48 44 39 34 32 30
100 100 99 100 98 96 99 99 91 89 82 77 83 86 98 98 98 98 99 81 56 52 51 47 40 36 37 45 49 50 49 47 45 45 45 46 48 44 45 39 39 33 30 30

GFSCGP_700_rhum_045.txt.gz
RH
19 20 16 16 21 30 38 44 34 33 53 60 55 52 49 54 55 53 50 53 41 38 54 66 64 54 44 35 25 23 35 41 42 42 44 42 42 41 50 51 46 44 42 37
23 20 20 19 18 18 16 45 45 37 50 59 59 56 54 52 49 52 48 50 52 36 44 53 63 62 55 44 33 21 26 35 39 39 39 39 40 41 49 53 56 41 40 34
37 29 24 21 20 20 17 28 44 42 44 53 55 54 53 49 51 52 48 51 55 52 36 41 45 52 58 55 43 33 21 25 32 36 36 34 35 39 45 46 41 40 41 37
48 41 44 39 26 24 25 15 13 46 47 40 52 48 52 49 47 47 42 42 48 55 37 37 39 40 40 46 51 43 35 24 23 28 30 29 32 34 34 39 37 37 37 36
51 40 46 50 39 34 28 27 18 13 44 48 44 47 46 49 48 48 39 36 37 49 55 34 31 32 40 43 46 42 41 37 28 24 26 27 31 32 34 37 35 32 32 30
41 46 49 51 40 40 36 32 30 28 22 29 44 45 41 49 45 43 38 35 38 41 48 53 34 34 30 39 47 45 39 38 36 25 25 26 29 30 30 28 30 30 31 27
23 29 39 45 46 45 44 42 35 33 32 22 24 43 44 43 45 41 40 34 35 40 45 52 50 36 25 26 27 28 32 26 26 22 24 27 29 28 27 25 26 29 27 22
12 12 17 34 42 40 43 40 32 35 28 16 21 36 39 42 42 41 41 34 35 40 43 46 50 49 30 24 24 23 18 16 19 21 22 27 28 27 25 22 22 24 22 20
45 24 16 41 40 44 38 46 36 30 41 30 17 24 34 38 38 42 38 38 35 36 39 41 48 51 48 37 24 22 21 21 19 19 21 24 26 25 23 21 21 21 20 18
27 28 12 15 35 42 37 37 45 40 36 33 24 22 21 26 37 36 39 38 31 30 33 33 37 46 51 50 42 29 27 26 24 25 24 24 24 23 21 21 19 19 20 19
33 32 30 14 23 44 42 46 42 41 39 28 26 23 25 23 18 24 34 36 32 27 24 23 27 32 36 49 52 50 41 30 30 32 33 27 22 21 19 19 18 18 20 19
35 34 39 36 12 30 63 54 42 42 44 42 35 24 22 22 14 10 14 32 32 30 26 24 23 30 34 40 47 50 44 48 34 28 28 29 25 23 21 19 18 18 18 18
49 68 51 22 25 9 44 54 51 42 40 42 39 34 27 26 28 28 26 16 22 24 26 21 20 30 32 37 40 43 47 44 44 34 30 26 27 26 22 19 19 18 17 17
53 49 64 41 32 74 73 71 59 56 40 46 43 37 32 27 24 24 24 25 25 25 22 18 18 24 30 32 36 38 43 49 48 44 34 23 22 20 23 21 19 19 17 16
67 63 88 85 60 68 81 85 65 77 51 42 44 44 41 32 23 21 20 22 21 21 20 20 19 18 20 30 31 35 38 44 50 46 47 42 26 21 19 22 19 19 19 15
71 77 96 82 54 74 86 66 68 73 53 49 44 41 42 42 34 24 23 22 22 17 16 18 18 15 14 19 30 33 38 42 46 47 40 48 56 30 20 17 17 18 17 14
80 74 95 66 62 86 77 67 69 64 60 47 38 39 35 36 35 33 29 24 18 16 14 14 14 15 15 13 26 30 36 39 45 47 45 45 50 30 18 14 14 14 14 12
89 91 98 81 85 90 57 58 55 91 88 44 41 39 37 30 27 25 25 24 18 16 14 14 13 16 18 15 21 26 33 36 42 31 40 43 41 31 15 11 11 12 12 11
100 95 98 97 97 91 82 86 78 85 83 47 38 42 36 38 36 32 30 24 18 18 16 12 14 17 18 17 14 26 30 36 40 29 43 47 46 14 8 8 8 10 10 11
82 88 94 97 96 98 98 100 94 85 92 78 39 49 38 40 36 31 27 21 18 16 17 13 12 14 16 16 16 27 28 31 34 23 42 35 17 10 6 7 8 9 10 10
100 98 96 96 97 92 100 94 99 92 90 99 89 49 38 44 42 36 27 21 17 18 17 13 13 13 13 15 15 26 27 33 22 23 42 41 29 18 12 9 9 9 10 12
95 94 96 97 96 96 100 100 93 95 100 100 100 95 86 77 72 72 35 25 19 33 17 20 19 14 13 13 17 24 26 34 25 34 43 49 51 44 36 30 31 32 34 34
97 98 98 97 98 97 100 100 99 98 100 100 100 98 98 99 98 97 74 47 35 44 27 19 18 16 15 17 22 25 27 35 24 35 45 48 52 51 51 52 47 42 40 38
97 98 97 98 98 98 99 100 100 100 100 100 100 100 100 100 99 99 98 78 70 70 46 29 19 16 17 22 25 27 29 36 30 37 39 46 45 46 47 44 50 49 34 26
98 96 98 98 99 98 99 100 100 100 100 100 100 99 99 100 98 100 97 65 65 70 73 55 43 37 32 32 32 35 28 37 38 42 35 45 44 54 49 50 42 41 39 31
98 98 97 98 98 98 99 100 100 97 97 98 98 100 99 99 99 100 99 71 64 75 74 70 60 59 62 54 51 47 43 37 41 44 42 44 51 50 53 51 51 52 47 33

GFSCGP_700_rhum_048.txt.gz
RH
26 35 29 23 24 19 24 22 22 32 42 59 56 51 58 52 58 52 51 53 41 48 61 70 67 53 41 34 18 32 41 48 47 44 42 43 45 48 52 54 50 48 43 41
36 28 25 28 25 27 22 31 33 30 40 52 52 49 48 63 53 50 54 56 55 43 50 63 67 55 42 31 21 23 37 44 44 44 42 42 43 44 48 50 46 40 41 38
31 25 25 26 29 28 25 20 22 32 42 44 51 48 47 53 69 69 51 54 59 48 41 46 62 59 48 37 28 17 28 36 41 41 42 40 41 41 42 47 51 40 39 34
30 26 31 28 28 25 20 19 20 23 34 35 42 37 44 46 65 68 52 48 44 57 52 41 44 54 54 47 36 27 17 28 35 38 38 38 36 37 40 48 48 38 36 31
38 39 37 36 32 26 24 21 19 20 20 32 39 42 37 41 47 67 71 45 40 43 50 47 34 35 51 54 47 39 27 18 25 31 34 36 34 33 40 42 35 34 32 30
37 47 42 36 36 37 33 29 25 23 17 14 27 36 35 36 41 45 61 60 39 37 38 50 52 40 41 50 54 48 40 27 20 21 26 29 30 30 36 33 30 32 30 28
28 34 40 41 38 38 36 31 25 23 18 13 15 24 34 33 36 45 47 58 40 37 37 42 49 48 37 39 40 42 38 34 25 20 21 24 26 29 32 33 31 30 28 26
17 16 27 36 38 34 37 30 26 28 16 12 12 14 20 32 37 38 49 48 63 62 37 40 44 45 43 31 30 34 34 33 29 24 20 22 25 28 30 30 28 25 25 26
23 18 34 35 37 46 35 33 28 25 21 16 11 12 12 20 30 37 41 48 52 63 35 36 43 44 47 28 17 21 22 34 30 21 20 21 24 27 28 28 26 23 22 22
43 20 22 38 31 32 40 30 31 29 31 29 19 17 12 16 29 32 33 39 48 61 35 39 43 43 47 46 27 18 19 19 20 19 18 19 22 26 27 28 26 22 21 18
47 35 23 18 14 16 31 37 38 30 28 25 25 18 17 15 18 29 32 33 38 54 34 32 36 38 38 47 50 35 19 19 20 16 16 18 20 22 26 28 24 21 20 17
55 48 46 25 16 22 32 47 34 32 31 30 26 21 18 21 21 20 27 32 34 43 43 30 27 27 31 37 44 52 43 25 18 19 18 16 18 21 24 26 25 22 19 17
69 50 40 17 16 19 21 29 42 45 40 34 29 28 27 26 29 24 22 24 34 38 46 34 37 30 28 27 33 40 51 53 46 26 21 22 20 20 21 22 23 21 20 18
60 45 46 25 17 28 43 42 35 43 42 37 35 32 31 29 27 29 31 32 26 30 39 35 32 30 24 25 32 31 36 51 53 50 32 22 21 20 18 18 21 21 19 17
85 85 56 48 45 39 34 28 43 60 59 53 37 32 33 34 31 30 31 33 31 36 25 22 24 24 19 23 31 36 38 41 51 44 41 24 21 19 21 21 20 21 20 16
88 84 63 52 48 47 38 28 24 37 52 59 57 50 38 36 39 34 32 34 40 27 20 26 25 23 20 19 27 33 37 34 43 48 48 38 26 24 21 19 19 20 21 18
95 91 75 56 40 32 31 30 33 26 39 52 55 44 41 40 48 45 43 46 35 22 22 18 22 22 20 19 21 31 32 32 39 40 48 50 42 35 25 21 18 18 19 17
89 96 91 62 39 50 35 34 34 32 29 45 53 50 43 53 54 61 37 32 22 21 21 20 17 19 20 18 14 19 25 32 36 40 44 42 42 45 50 41 24 16 16 16
90 96 95 81 54 47 48 50 52 34 32 47 52 50 39 48 64 41 35 28 25 24 20 17 15 14 15 16 16 14 24 32 34 40 45 40 43 49 53 49 33 21 14 13
96 97 98 74 74 69 49 67 95 71 48 90 83 66 46 59 60 64 53 32 31 25 20 16 15 14 14 16 15 16 18 24 34 41 42 24 30 36 40 47 42 17 11 11
93 99 96 90 81 72 71 89 98 99 79 90 60 50 48 71 61 53 51 46 33 27 18 17 16 15 14 18 16 18 16 20 32 37 44 26 34 46 49 38 16 12 10 9
99 100 99 100 96 90 74 97 99 100 92 95 90 81 51 54 55 49 48 50 35 27 20 16 17 14 11 15 15 17 17 17 28 35 39 19 47 47 45 46 26 9 8 8
95 87 97 94 93 89 98 99 99 100 100 100 100 97 96 64 71 51 47 44 35 29 25 27 23 17 12 10 12 17 15 21 27 38 23 32 38 43 28 9 7 7 7 7
96 98 97 98 97 98 98 98 97 100 100 100 100 100 99 98 96 100 98 98 44 37 46 44 42 27 18 14 13 14 15 20 32 38 21 36 44 46 45 35 18 13 14 19
97 97 97 98 98 98 98 98 98 99 100 100 100 99 100 99 100 98 99 98 96 71 80 68 79 71 52 27 16 14 16 23 30 38 28 36 46 50 53 58 50 38 39 40
98 98 98 97 98 99 98 98 96 99 100 100 99 99 100 100 100 100 100 99 100 95 95 89 88 84 75 60 40 24 23 27 32 40 36 36 48 48 60 65 65 64 52 47